FFT824 KGEG-PAWG

Flight info

Callsign FFT824
Flight time N/A
Altitude 32000
Route GETNG Q140 WOBED DISCO Q902 DOOZI
Aircraft A320/M-SDE3FGHIRWY/LB1

Departure

Time 2026-04-29 17:51
Airport Spokane International Airport (KGEG)

Arrival

Time N/A
Airport Wrangell Airport (PAWG)
Time Latitude Longitude Altitude Speed Heading
2026-04-29 17:02 47.62413 -117.53654 2375 ft 0 kts 64°
2026-04-29 17:40 47.62405 -117.53677 2375 ft 3 kts 58°
2026-04-29 17:40 47.62393 -117.53703 2375 ft 3 kts 59°
2026-04-29 17:40 47.62385 -117.53728 2375 ft 3 kts 109°
2026-04-29 17:40 47.62390 -117.53739 2375 ft 1 kts 135°
2026-04-29 17:41 47.62390 -117.53740 2375 ft 0 kts 135°
2026-04-29 17:42 47.62388 -117.53737 2375 ft 2 kts 135°
2026-04-29 17:43 47.62370 -117.53712 2379 ft 5 kts 136°
2026-04-29 17:43 47.62335 -117.53658 2375 ft 9 kts 128°
2026-04-29 17:43 47.62317 -117.53561 2375 ft 10 kts 120°
2026-04-29 17:43 47.62313 -117.53450 2376 ft 13 kts 52°
2026-04-29 17:44 47.62387 -117.53341 2375 ft 17 kts 45°
2026-04-29 17:44 47.62472 -117.53211 2376 ft 18 kts 46°
2026-04-29 17:44 47.62562 -117.53076 2375 ft 19 kts 45°
2026-04-29 17:44 47.62656 -117.52936 2375 ft 20 kts 45°
2026-04-29 17:45 47.62754 -117.52789 2378 ft 20 kts 45°
2026-04-29 17:45 47.62855 -117.52638 2379 ft 20 kts 45°
2026-04-29 17:45 47.62946 -117.52499 2375 ft 19 kts 46°
2026-04-29 17:45 47.63032 -117.52369 2378 ft 16 kts 45°
2026-04-29 17:46 47.63108 -117.52256 2375 ft 14 kts 45°
2026-04-29 17:46 47.63180 -117.52150 2375 ft 13 kts 45°
2026-04-29 17:46 47.63221 -117.52087 2375 ft 6 kts 46°
2026-04-29 17:46 47.63236 -117.52044 2375 ft 4 kts 86°
2026-04-29 17:47 47.63231 -117.52015 2375 ft 2 kts 115°
2026-04-29 17:47 47.63226 -117.52005 2377 ft 0 kts 122°
2026-04-29 17:48 47.63217 -117.51990 2376 ft 4 kts 133°
2026-04-29 17:48 47.63189 -117.51946 2375 ft 8 kts 134°
2026-04-29 17:48 47.63142 -117.51875 2375 ft 12 kts 135°
2026-04-29 17:48 47.63089 -117.51876 2377 ft 7 kts 224°
2026-04-29 17:49 47.63083 -117.51885 2375 ft 0 kts 228°
2026-04-29 17:50 47.63025 -117.51975 2376 ft 40 kts 226°
2026-04-29 17:50 47.62651 -117.52534 2373 ft 109 kts 225°
2026-04-29 17:50 47.61986 -117.53533 2374 ft 161 kts 225°
2026-04-29 17:50 47.61133 -117.54777 2789 ft 175 kts 223°
2026-04-29 17:51 47.60222 -117.56021 3563 ft 180 kts 221°
2026-04-29 17:51 47.59271 -117.57252 4216 ft 185 kts 221°
2026-04-29 17:51 47.58270 -117.58574 4534 ft 201 kts 223°
2026-04-29 17:51 47.57214 -117.60023 4838 ft 218 kts 223°
2026-04-29 17:52 47.56048 -117.61624 5094 ft 242 kts 224°
2026-04-29 17:52 47.55246 -117.62919 5212 ft 263 kts 233°
2026-04-29 17:52 47.54191 -117.66247 6052 ft 273 kts 261°
2026-04-29 17:52 47.54207 -117.69044 6911 ft 275 kts 284°
2026-04-29 17:53 47.55018 -117.71597 7626 ft 278 kts 306°
2026-04-29 17:53 47.56157 -117.73913 8314 ft 280 kts 307°
2026-04-29 17:53 47.57320 -117.76238 9143 ft 282 kts 308°
2026-04-29 17:53 47.58498 -117.78587 9942 ft 286 kts 308°
2026-04-29 17:54 47.59709 -117.81004 10397 ft 302 kts 308°
2026-04-29 17:54 47.61010 -117.83602 10589 ft 326 kts 308°
2026-04-29 17:54 47.62405 -117.86399 10727 ft 348 kts 307°
2026-04-29 17:54 47.63871 -117.89357 11084 ft 361 kts 307°
2026-04-29 17:55 47.65367 -117.92380 11708 ft 366 kts 307°
2026-04-29 17:55 47.66883 -117.95439 12401 ft 369 kts 307°
2026-04-29 17:55 47.68406 -117.98514 13074 ft 371 kts 308°
2026-04-29 17:55 47.69938 -118.01615 13751 ft 374 kts 308°
2026-04-29 17:56 47.71482 -118.04742 14365 ft 377 kts 308°
2026-04-29 17:56 47.73035 -118.07892 14933 ft 380 kts 308°
2026-04-29 17:56 47.74603 -118.11071 15519 ft 383 kts 308°
2026-04-29 17:56 47.75645 -118.13186 15899 ft 385 kts 308°
2026-04-29 17:57 47.77230 -118.16409 16452 ft 387 kts 308°
2026-04-29 17:57 47.78813 -118.19641 17120 ft 386 kts 308°
2026-04-29 17:57 47.80907 -118.23920 17905 ft 388 kts 308°
2026-04-29 17:57 47.81982 -118.26115 18273 ft 390 kts 308°
2026-04-29 17:58 47.83582 -118.29384 18783 ft 392 kts 308°
2026-04-29 17:58 47.85193 -118.32683 19233 ft 395 kts 308°
2026-04-29 17:58 47.87335 -118.37081 19854 ft 398 kts 308°
2026-04-29 17:58 47.88435 -118.39341 20163 ft 399 kts 308°
2026-04-29 17:59 47.90068 -118.42702 20598 ft 402 kts 308°
2026-04-29 17:59 47.91724 -118.46109 20889 ft 409 kts 308°
2026-04-29 17:59 47.93375 -118.49504 21288 ft 411 kts 308°
2026-04-29 17:59 47.95057 -118.52969 21707 ft 414 kts 308°
2026-04-29 18:00 47.96751 -118.56462 22119 ft 416 kts 308°
2026-04-29 18:00 47.98449 -118.59969 22519 ft 418 kts 308°
2026-04-29 18:00 48.00155 -118.63497 22924 ft 420 kts 308°
2026-04-29 18:00 48.01869 -118.67051 23315 ft 423 kts 308°
2026-04-29 18:01 48.03588 -118.70626 23697 ft 425 kts 308°
2026-04-29 18:01 48.05315 -118.74226 24031 ft 427 kts 308°
2026-04-29 18:01 48.07051 -118.77846 24349 ft 429 kts 308°
2026-04-29 18:01 48.08792 -118.81475 24692 ft 431 kts 308°
2026-04-29 18:02 48.10539 -118.85122 25038 ft 432 kts 308°
2026-04-29 18:02 48.12291 -118.88786 25344 ft 434 kts 308°
2026-04-29 18:02 48.14047 -118.92462 25652 ft 435 kts 308°
2026-04-29 18:02 48.15810 -118.96153 25959 ft 436 kts 308°
2026-04-29 18:03 48.17578 -118.99860 26261 ft 437 kts 308°
2026-04-29 18:03 48.19346 -119.03574 26564 ft 439 kts 308°
2026-04-29 18:03 48.21122 -119.07306 26848 ft 440 kts 308°
2026-04-29 18:03 48.22902 -119.11055 27132 ft 442 kts 308°
2026-04-29 18:04 48.24684 -119.14812 27420 ft 443 kts 308°
2026-04-29 18:04 48.26470 -119.18585 27694 ft 444 kts 308°
2026-04-29 18:04 48.28258 -119.22366 28062 ft 443 kts 308°
2026-04-29 18:04 48.30016 -119.26092 28466 ft 441 kts 308°
2026-04-29 18:05 48.31782 -119.29845 28883 ft 440 kts 308°
2026-04-29 18:05 48.33542 -119.33592 29315 ft 438 kts 308°
2026-04-29 18:05 48.35320 -119.37379 29741 ft 436 kts 308°
2026-04-29 18:05 48.37063 -119.41098 30153 ft 435 kts 308°
2026-04-29 18:06 48.38780 -119.44765 30517 ft 433 kts 308°
2026-04-29 18:06 48.40482 -119.48500 30849 ft 433 kts 304°
2026-04-29 18:06 48.41827 -119.52570 31172 ft 436 kts 295°
2026-04-29 18:06 48.42697 -119.56960 31491 ft 440 kts 285°
2026-04-29 18:07 48.43108 -119.61534 31815 ft 442 kts 280°
2026-04-29 18:07 48.43414 -119.66137 32151 ft 441 kts 280°
2026-04-29 18:07 48.43718 -119.70721 32497 ft 439 kts 280°
2026-04-29 18:07 48.44019 -119.75301 32832 ft 438 kts 280°
2026-04-29 18:08 48.44316 -119.79854 33161 ft 437 kts 280°
2026-04-29 18:08 48.44610 -119.84386 33494 ft 435 kts 280°
2026-04-29 18:08 48.44906 -119.88925 33815 ft 434 kts 281°
2026-04-29 18:08 48.45201 -119.93448 34135 ft 433 kts 281°
2026-04-29 18:09 48.45492 -119.97955 34268 ft 433 kts 281°
2026-04-29 18:09 48.46063 -120.06990 34294 ft 433 kts 281°
2026-04-29 18:10 48.46625 -120.16022 34291 ft 433 kts 281°
2026-04-29 18:10 48.47177 -120.25055 34292 ft 432 kts 281°
2026-04-29 18:11 48.47724 -120.34077 34306 ft 432 kts 281°
2026-04-29 18:11 48.48266 -120.43090 34299 ft 431 kts 281°
2026-04-29 18:12 48.48793 -120.52014 34290 ft 430 kts 281°
2026-04-29 18:12 48.49316 -120.61055 34285 ft 430 kts 281°
2026-04-29 18:13 48.49829 -120.69976 34277 ft 430 kts 281°
2026-04-29 18:13 48.50342 -120.78941 34278 ft 429 kts 281°
2026-04-29 18:14 48.50850 -120.87900 34286 ft 428 kts 281°
2026-04-29 18:14 48.51345 -120.96841 34286 ft 429 kts 281°
2026-04-29 18:15 48.51832 -121.05836 34285 ft 431 kts 281°
2026-04-29 18:15 48.52315 -121.14832 34292 ft 430 kts 281°
2026-04-29 18:16 48.52788 -121.23821 34299 ft 430 kts 281°
2026-04-29 18:16 48.53256 -121.32797 34294 ft 429 kts 281°
2026-04-29 18:17 48.53719 -121.41748 34298 ft 428 kts 281°
2026-04-29 18:17 48.54172 -121.50707 34293 ft 428 kts 281°
2026-04-29 18:18 48.54615 -121.59613 34302 ft 429 kts 281°
2026-04-29 18:18 48.55056 -121.68584 34304 ft 428 kts 281°
2026-04-29 18:19 48.55486 -121.77561 34319 ft 429 kts 281°
2026-04-29 18:19 48.55904 -121.86547 34312 ft 429 kts 281°
2026-04-29 18:20 48.56322 -121.95524 34317 ft 429 kts 281°
2026-04-29 18:20 48.56739 -122.04505 34313 ft 429 kts 281°
2026-04-29 18:21 48.57147 -122.13487 34318 ft 428 kts 281°
2026-04-29 18:21 48.57481 -122.20958 34322 ft 429 kts 281°